When you browse on this site, cookies collect data to enhance your experience and personalize the content and advertising you see.
Visit our Privacy Policy to learn more. By continuing to use the site, you agree to this use of cookies and data.
  • En España
  • Lista de países
  • Para 7 días
  • Temperatura del agua
  • Mapa Satelital
  • El tiempo en el mapa
  • Informadores
  • user-avatar
    Iniciar sesión

    Tiempo cada hora Split

    Hoy, 21 Abril, Domingo

    Tiempo Temperatura Precipitaciones Viento Presión Humedad
    00:00 +14°C° 0 mm 3 mps 767 mmHg 54%
    01:00 +14°C° 0 mm 3 mps 766 mmHg 52%
    02:00 +14°C° 0 mm 3 mps 766 mmHg 52%
    03:00 +13°C° 0 mm 3 mps 766 mmHg 53%
    04:00 +13°C° 0 mm 3 mps 766 mmHg 53%
    05:00 +14°C° 0 mm 3 mps 766 mmHg 53%
    06:00 +14°C° 0 mm 3 mps 766 mmHg 52%
    07:00 +16°C° 0 mm 3 mps 766 mmHg 49%
    08:00 +17°C° 0 mm 3 mps 765 mmHg 49%
    09:00 +18°C° 0 mm 4 mps 765 mmHg 49%
    10:00 +20°C° 0 mm 4 mps 765 mmHg 50%
    11:00 +20°C° 0 mm 4 mps 765 mmHg 50%
    12:00 +20°C° 0 mm 4 mps 764 mmHg 51%
    13:00 +21°C° 0 mm 4 mps 764 mmHg 52%
    14:00 +20°C° 0 mm 4 mps 764 mmHg 55%
    15:00 +20°C° 0 mm 4 mps 763 mmHg 57%
    16:00 +19°C° 0 mm 4 mps 763 mmHg 60%
    17:00 +18°C° 0 mm 4 mps 763 mmHg 67%
    18:00 +17°C° 0 mm 4 mps 763 mmHg 74%
    19:00 +15°C° 0 mm 4 mps 763 mmHg 80%
    20:00 +15°C° 0 mm 4 mps 763 mmHg 82%
    21:00 +14°C° 0 mm 4 mps 763 mmHg 84%
    22:00 +14°C° 0 mm 4 mps 763 mmHg 85%
    23:00 +14°C° 0 mm 4 mps 763 mmHg 86%

    Mañana, 22 Abril, Lunes

    Tiempo Temperatura Precipitaciones Viento Presión Humedad
    00:00 +14°C° 0 mm 4 mps 763 mmHg 87%
    01:00 +14°C° 0 mm 4 mps 763 mmHg 88%
    02:00 +13°C° 0 mm 4 mps 763 mmHg 88%
    03:00 +13°C° 0 mm 4 mps 763 mmHg 88%
    04:00 +13°C° 0 mm 4 mps 762 mmHg 88%
    05:00 +13°C° 0 mm 5 mps 762 mmHg 84%
    06:00 +14°C° 0 mm 5 mps 761 mmHg 81%
    07:00 +14°C° 0 mm 6 mps 761 mmHg 77%
    08:00 +15°C° 0 mm 6 mps 760 mmHg 75%
    09:00 +16°C° 0 mm 7 mps 760 mmHg 73%
    10:00 +17°C° 0 mm 8 mps 760 mmHg 70%
    11:00 +17°C° 0 mm 8 mps 759 mmHg 69%
    12:00 +18°C° 0 mm 9 mps 759 mmHg 68%
    13:00 +18°C° 0 mm 9 mps 758 mmHg 68%
    14:00 +18°C° 0 mm 10 mps 757 mmHg 67%
    15:00 +17°C° 0 mm 10 mps 757 mmHg 67%
    16:00 +17°C° 0 mm 10 mps 756 mmHg 66%
    17:00 +17°C° 0 mm 10 mps 756 mmHg 69%
    18:00 +16°C° 0 mm 11 mps 756 mmHg 72%
    19:00 +14°C° 0 mm 11 mps 756 mmHg 75%
    20:00 +14°C° 0.5 mm 11 mps 756 mmHg 79%
    21:00 +14°C° 0.5 mm 12 mps 755 mmHg 82%
    22:00 +13°C° 0.5 mm 12 mps 755 mmHg 86%
    23:00 +14°C° 0.2 mm 12 mps 755 mmHg 84%

    Pasado mañana, 23 Abril, Martes

    Tiempo Temperatura Precipitaciones Viento Presión Humedad
    00:00 +14°C° 0.2 mm 11 mps 755 mmHg 82%
    01:00 +14°C° 0.2 mm 11 mps 754 mmHg 80%
    02:00 +14°C° 0.1 mm 11 mps 754 mmHg 81%
    03:00 +14°C° 0.1 mm 11 mps 754 mmHg 82%
    04:00 +14°C° 0.1 mm 10 mps 753 mmHg 82%
    05:00 +14°C° 0.1 mm 11 mps 753 mmHg 83%
    06:00 +14°C° 0.1 mm 11 mps 753 mmHg 84%
    07:00 +14°C° 0.1 mm 11 mps 753 mmHg 85%
    08:00 +16°C° 0.1 mm 11 mps 753 mmHg 85%
    09:00 +16°C° 0.1 mm 11 mps 753 mmHg 85%
    10:00 +16°C° 0.1 mm 11 mps 753 mmHg 85%
    11:00 +16°C° 0.1 mm 11 mps 753 mmHg 84%
    12:00 +17°C° 0.1 mm 11 mps 753 mmHg 84%
    13:00 +17°C° 0.1 mm 11 mps 754 mmHg 84%
    14:00 +17°C° 1 mm 10 mps 754 mmHg 85%
    15:00 +17°C° 1 mm 10 mps 754 mmHg 87%
    16:00 +17°C° 1 mm 9 mps 754 mmHg 88%
    17:00 +17°C° 1.5 mm 8 mps 754 mmHg 86%
    18:00 +17°C° 1.5 mm 8 mps 754 mmHg 84%
    19:00 +17°C° 1.5 mm 7 mps 755 mmHg 81%
    20:00 +17°C° 1.1 mm 6 mps 755 mmHg 83%
    21:00 +16°C° 1.1 mm 6 mps 756 mmHg 84%
    22:00 +16°C° 1.1 mm 5 mps 757 mmHg 85%
    23:00 +16°C° 1 mm 5 mps 757 mmHg 86%

    24 Abril, Miércoles

    Tiempo Temperatura Precipitaciones Viento Presión Humedad
    00:00 +16°C° 1 mm 5 mps 758 mmHg 87%
    01:00 +17°C° 1 mm 4 mps 758 mmHg 87%
    02:00 +16°C° 0.3 mm 5 mps 758 mmHg 89%
    03:00 +16°C° 0.3 mm 6 mps 759 mmHg 91%
    04:00 +15°C° 0.3 mm 6 mps 759 mmHg 93%
    05:00 +16°C° 0.1 mm 7 mps 759 mmHg 93%
    06:00 +16°C° 0.1 mm 7 mps 760 mmHg 93%
    07:00 +16°C° 0.1 mm 8 mps 760 mmHg 93%
    08:00 +16°C° 0.1 mm 8 mps 761 mmHg 91%
    09:00 +16°C° 0.1 mm 8 mps 761 mmHg 90%
    10:00 +17°C° 0.1 mm 8 mps 761 mmHg 88%
    11:00 +18°C° 0 mm 8 mps 761 mmHg 84%
    12:00 +20°C° 0 mm 7 mps 761 mmHg 79%
    13:00 +21°C° 0 mm 7 mps 762 mmHg 74%
    14:00 +21°C° 0 mm 7 mps 761 mmHg 72%
    15:00 +21°C° 0 mm 7 mps 761 mmHg 70%
    16:00 +21°C° 0 mm 6 mps 761 mmHg 68%
    17:00 +20°C° 0 mm 6 mps 761 mmHg 70%
    18:00 +19°C° 0 mm 5 mps 761 mmHg 73%
    19:00 +17°C° 0 mm 5 mps 761 mmHg 76%
    20:00 +17°C° 0 mm 5 mps 762 mmHg 75%
    21:00 +17°C° 0 mm 5 mps 762 mmHg 74%
    22:00 +16°C° 0 mm 5 mps 762 mmHg 73%
    23:00 +16°C° 0 mm 5 mps 762 mmHg 74%

    25 Abril, Jueves

    Tiempo Temperatura Precipitaciones Viento Presión Humedad
    00:00 +16°C° 0 mm 6 mps 762 mmHg 75%
    01:00 +16°C° 0 mm 6 mps 762 mmHg 76%
    02:00 +16°C° 0 mm 6 mps 762 mmHg 77%
    03:00 +16°C° 0 mm 6 mps 762 mmHg 77%
    04:00 +16°C° 0 mm 6 mps 762 mmHg 78%
    05:00 +17°C° 0 mm 6 mps 762 mmHg 76%
    06:00 +17°C° 0 mm 6 mps 762 mmHg 74%
    07:00 +19°C° 0 mm 6 mps 762 mmHg 72%
    08:00 +20°C° 0 mm 6 mps 762 mmHg 68%
    09:00 +21°C° 0 mm 7 mps 762 mmHg 63%
    10:00 +22°C° 0 mm 7 mps 762 mmHg 59%
    11:00 +22°C° 0 mm 8 mps 762 mmHg 60%
    12:00 +22°C° 0 mm 8 mps 761 mmHg 61%
    13:00 +22°C° 0 mm 9 mps 761 mmHg 61%
    14:00 +22°C° 0 mm 9 mps 761 mmHg 63%
    15:00 +22°C° 0 mm 8 mps 761 mmHg 64%
    16:00 +22°C° 0 mm 8 mps 760 mmHg 65%
    17:00 +21°C° 0 mm 7 mps 760 mmHg 68%
    18:00 +20°C° 0 mm 6 mps 760 mmHg 70%
    19:00 +19°C° 0 mm 5 mps 760 mmHg 73%
    20:00 +19°C° 0 mm 5 mps 761 mmHg 72%
    21:00 +17°C° 0 mm 5 mps 761 mmHg 72%
    22:00 +17°C° 0 mm 5 mps 761 mmHg 71%
    23:00 +17°C° 0.1 mm 5 mps 761 mmHg 72%

    26 Abril, Viernes

    Tiempo Temperatura Precipitaciones Viento Presión Humedad
    00:00 +17°C° 0.1 mm 5 mps 761 mmHg 73%
    01:00 +17°C° 0.1 mm 5 mps 761 mmHg 74%
    02:00 +16°C° 0 mm 5 mps 761 mmHg 75%
    03:00 +16°C° 0 mm 5 mps 761 mmHg 77%
    04:00 +16°C° 0 mm 5 mps 760 mmHg 79%
    05:00 +17°C° 0 mm 6 mps 760 mmHg 79%
    06:00 +17°C° 0 mm 6 mps 760 mmHg 78%
    07:00 +19°C° 0 mm 6 mps 760 mmHg 78%
    08:00 +19°C° 0 mm 6 mps 760 mmHg 76%
    09:00 +20°C° 0 mm 7 mps 760 mmHg 75%
    10:00 +21°C° 0 mm 7 mps 760 mmHg 73%
    11:00 +21°C° 0 mm 7 mps 760 mmHg 75%
    12:00 +21°C° 0 mm 7 mps 760 mmHg 76%
    13:00 +21°C° 0 mm 7 mps 760 mmHg 77%
    14:00 +21°C° 0 mm 6 mps 760 mmHg 77%
    15:00 +21°C° 0 mm 5 mps 759 mmHg 78%
    16:00 +21°C° 0 mm 5 mps 759 mmHg 78%
    17:00 +20°C° 0 mm 4 mps 759 mmHg 82%
    18:00 +19°C° 0 mm 3 mps 759 mmHg 87%
    19:00 +18°C° 0 mm 2 mps 759 mmHg 91%
    20:00 +18°C° 0.2 mm 2 mps 759 mmHg 90%
    21:00 +17°C° 0.2 mm 2 mps 759 mmHg 90%
    22:00 +17°C° 0.2 mm 2 mps 760 mmHg 90%
    23:00 +17°C° 1.4 mm 4 mps 760 mmHg 89%
    Mostrar más